Etusivu
METAR-TAF:

METAR-TAF

Lentoasemat :

Pajala-Ylläksen lentoasema

Pajala, Ruotsi

Leveyspiiri: 67-14-44N, Pituuspiiri: 023-04-08E, korkeus merenpinnasta: 165 m

Tämänhetkinen sää

Tämä raportti tehtiin 44 minuuttia sitten, kello 09.50 UTC
Tuuli 6 kn idästä
Lämpötila -5°C
Kosteus 93%
Ilmanpaine 1020 hPa

METAR: ESUP 170950Z AUTO 09006KT //// R11///// SCT005/// BKN007/// OVC010/// M05/M06 Q1020 RESN

Aika: 11:34 (10:34 UTC)


TAF: puuttuu

Säähavainnot ja -ennusteet yli 4000 lentoasemalta (METAR- ja TAF-raportit).

Käytössä olevat sääasemat on merkitty karttaan keltaisilla ja punaisilla pisteillä.

Aseta hiiri pisteen päälle nähdäksesi sääaseman nimen.

Klikkaa sitten nähdäksesi säähavainnot ja -ennusteet.

Kartan vaihtaminen: klikkaa mustalla rastilla varustettuja vihreitä pisteitä, niin voit zoomata sisään; viivalla varustettua vihreää pistettä, niin voit zoomata ulos tai vihreitä nuolia, niin pääset viereisille kartoille.


METAR-TAF: